2017-008AZ

Last updated on Fri Mar 10 2017 00:15:03 GMT+0000 (Coordinated Universal Time)

1 41995U 17008AZ 17068.10082597 .00002476 00000-0 11201-3 0 9995 2 41995 97.5090 129.6952 0008681 189.9137 170.1924 15.21841203 3313

Satellite not in orbit

2017-008AZ